Wind_Speed
31 30 28 26 24 23 22 21 21 21 22 22 21 21 21 21 20 19 19 19 19 18 18 18 18 17 16 14 13 12 11 11 11 11 12 12 12 12 13 13 14 14 15 17 17 17 16 15 15 14 13 12 11 10 10 9 8 8 8 7 7 6 5
34 31 30 27 25 24 23 22 22 22 23 23 22 21 21 22 21 20 20 20 19 19 18 18 18 18 18 17 15 14 13 13 13 12 12 12 12 13 13 13 13 14 15 15 16 15 15 14 14 13 12 12 11 10 10 9 8 8 8 7 7 6 5
37 34 32 29 26 25 24 23 23 23 24 23 23 22 22 23 23 21 20 20 20 19 19 18 18 19 19 19 18 16 15 15 14 14 13 13 13 13 13 13 13 14 14 14 14 14 14 13 12 12 12 11 11 10 9 8 8 7 7 6 6 5 5
39 36 34 31 28 27 25 25 24 24 25 25 25 25 24 25 24 23 21 21 21 21 20 18 17 18 19 19 19 19 17 17 16 15 15 15 14 14 13 13 13 13 13 13 13 13 13 12 12 12 11 11 10 9 8 8 7 6 6 6 5 5 4
38 34 33 32 30 28 26 26 26 26 26 26 26 26 26 25 25 24 23 22 22 22 21 19 17 16 17 18 19 19 18 18 17 16 16 16 16 15 15 14 14 14 14 14 14 13 13 12 12 12 11 11 10 9 8 8 8 7 6 6 6 5 5
35 33 31 32 30 29 28 28 28 28 27 27 27 27 27 26 25 25 24 23 23 22 22 20 19 18 18 18 19 19 19 19 18 18 18 18 17 17 16 16 16 15 15 15 14 14 13 13 12 12 11 11 10 10 9 9 9 8 8 7 7 7 6
31 33 33 32 31 30 29 29 29 29 28 28 28 28 28 27 27 26 25 24 24 23 23 22 22 21 20 19 19 19 20 20 19 19 18 18 19 18 18 17 17 17 16 16 15 15 14 13 13 12 12 12 11 11 11 11 10 10 9 9 9 8 8
23 28 31 33 32 31 31 31 31 30 30 29 29 29 29 28 28 27 26 25 25 24 24 24 23 23 22 21 20 20 20 20 20 19 19 19 19 19 19 19 18 18 18 17 16 16 15 14 14 14 13 13 13 13 13 13 12 12 12 11 11 11 10
16 19 23 26 31 33 32 33 33 32 32 31 29 29 29 29 29 28 27 26 26 25 25 24 24 24 23 22 21 21 20 20 20 20 20 20 20 19 20 20 19 19 18 18 17 17 16 16 15 15 15 15 16 16 15 15 15 14 14 14 13 13 13
16 17 18 20 25 31 33 33 33 34 34 33 31 30 30 30 30 29 28 28 27 26 26 25 25 25 25 24 24 23 23 22 22 22 22 23 22 21 21 21 20 20 20 19 18 17 16 16 16 16 17 17 17 17 17 16 15 15 15 14 14 14 14
16 18 19 19 21 26 31 33 34 36 36 34 32 32 32 32 31 30 29 29 28 28 27 27 26 26 26 26 25 25 24 24 24 25 25 26 25 24 23 22 22 22 22 21 21 19 18 17 16 16 16 17 17 17 16 15 15 14 14 14 14 15 15
17 17 19 21 21 24 29 33 37 39 38 35 34 33 34 34 32 31 30 30 30 30 30 29 28 28 28 28 28 27 27 26 26 27 27 27 26 26 25 24 23 23 23 23 23 22 20 19 18 17 16 16 16 16 15 15 14 14 14 14 14 15 15
16 17 18 19 21 23 26 30 38 42 40 38 37 36 36 35 34 32 31 31 32 32 32 31 30 30 29 29 29 29 29 28 28 28 28 27 27 26 25 25 24 24 24 24 24 23 22 21 20 19 17 16 16 16 16 15 15 15 15 15 15 15 15
17 17 17 18 19 21 23 27 34 41 43 41 40 39 38 37 36 34 32 33 33 33 33 33 32 31 31 31 31 30 30 30 29 28 27 27 26 26 26 26 26 26 25 24 24 24 23 23 22 21 19 18 18 17 17 17 17 17 17 17 16 16 15
16 17 18 18 18 19 21 24 27 33 41 45 43 40 38 37 36 35 34 34 33 33 34 34 34 33 32 32 31 31 31 30 29 28 27 26 26 26 26 26 27 26 26 25 25 24 24 23 23 22 22 21 20 19 19 18 19 19 19 19 18 17 16
15 16 17 18 18 18 18 21 23 26 35 45 44 40 38 37 37 36 35 35 35 33 32 32 33 33 32 32 32 32 32 32 30 28 27 26 27 27 27 27 27 27 27 26 26 26 25 25 25 24 24 23 23 22 21 20 21 21 21 20 20 19 18
19 18 18 18 18 19 18 19 20 19 27 39 43 40 38 36 36 37 36 35 34 33 32 32 32 31 30 31 32 33 33 32 31 30 29 29 29 28 28 27 27 28 28 27 27 27 27 27 27 26 26 25 25 24 24 23 23 23 23 22 21 21 20
23 22 22 20 19 20 19 19 19 18 20 28 36 39 39 37 37 38 38 38 38 36 35 34 33 31 31 32 33 33 33 33 32 31 31 31 31 30 29 28 28 28 28 28 28 28 29 29 28 28 27 27 26 26 26 26 26 26 25 24 23 23 22
27 26 26 24 22 21 20 17 18 19 19 20 24 32 38 40 40 40 41 42 42 40 39 37 36 35 35 35 34 33 32 33 33 33 33 33 32 31 30 29 29 29 29 28 29 29 29 29 29 29 28 28 28 28 28 28 29 28 27 26 25 24 23
30 28 28 27 25 24 23 21 18 19 19 17 17 20 26 31 35 38 41 43 42 40 40 40 39 39 39 38 36 34 33 33 33 33 33 34 34 34 33 32 31 31 31 31 31 31 31 30 30 30 29 29 29 29 30 30 29 29 29 28 27 26 25
30 29 29 28 27 25 25 25 24 23 22 19 18 17 17 18 20 24 29 35 38 40 41 41 39 38 38 38 38 37 35 35 34 33 33 34 35 36 35 34 34 34 34 34 34 33 33 32 32 32 31 30 30 30 31 31 30 30 30 30 29 29 28
26 27 28 28 28 27 27 26 25 26 25 24 22 21 19 18 17 15 15 19 23 28 33 36 36 36 37 39 39 39 38 37 36 35 34 35 37 38 37 36 36 37 37 37 36 35 36 36 35 34 33 31 31 32 33 32 32 31 31 31 31 31 30
24 24 25 26 27 28 28 27 25 26 26 26 27 25 23 22 21 16 14 14 14 16 20 23 24 24 26 29 32 34 37 40 40 39 38 39 40 40 39 38 38 38 39 39 38 36 37 37 37 36 35 34 33 34 34 34 34 33 32 32 32 32 32
25 24 25 25 25 26 27 26 26 26 27 27 28 28 27 27 26 22 18 16 14 13 15 16 16 17 17 19 21 22 26 32 36 37 37 39 40 41 41 40 39 39 39 38 37 36 35 35 35 35 35 35 35 35 35 35 35 36 35 34 33 33 34
28 28 27 26 25 26 26 26 26 27 28 29 28 28 27 28 29 29 28 24 21 18 17 16 15 16 16 16 17 18 18 20 23 25 26 27 29 33 35 36 36 35 33 29 28 30 33 35 35 35 36 36 37 37 36 36 36 37 36 36 36 36 35
29 30 30 29 28 28 27 28 27 27 27 27 28 27 26 25 26 28 27 26 24 23 22 20 18 18 18 17 18 20 19 17 16 17 19 20 20 22 23 24 26 27 25 22 21 22 26 29 30 32 34 36 37 38 38 37 37 36 36 37 38 38 38
29 30 30 31 31 31 30 30 31 29 28 27 27 28 27 26 25 25 24 23 23 23 23 23 22 21 22 22 23 24 25 24 21 19 19 19 20 20 20 20 21 22 23 23 23 23 23 23 23 24 26 28 29 31 32 34 35 36 36 37 38 39 38
29 30 31 32 32 32 33 33 33 33 32 31 30 30 30 29 27 26 25 24 23 23 23 24 24 22 22 22 23 25 27 28 27 25 23 22 21 22 22 22 23 23 23 24 25 25 26 27 27 26 26 25 25 25 26 28 29 30 32 33 34 35 35
31 32 33 34 34 34 34 34 35 36 36 35 34 32 32 32 31 29 28 27 26 24 23 24 23 23 22 21 21 23 24 26 26 26 26 25 24 23 23 23 23 24 24 25 26 26 27 28 29 30 30 29 28 27 27 28 28 28 29 29 29 30 31
34 35 35 36 36 37 37 36 36 37 37 37 37 36 35 34 33 33 32 31 30 28 27 26 25 24 24 23 22 23 23 24 24 25 25 26 25 25 24 24 24 24 25 26 26 27 27 28 28 29 30 30 31 30 30 31 31 31 31 31 30 29 29
35 36 38 39 39 39 40 40 39 39 39 39 39 38 38 37 36 36 35 35 34 33 32 31 30 30 29 28 27 27 26 26 26 27 27 27 27 27 27 27 27 27 27 28 28 29 29 29 30 30 30 30 31 31 31 32 33 34 34 34 34 32 31
37 38 38 39 40 41 41 42 42 42 42 42 41 41 40 40 39 39 39 38 38 37 37 36 35 35 35 34 33 32 32 31 31 31 31 31 31 31 32 31 31 31 31 31 31 31 31 31 32 32 32 33 33 33 34 34 35 36 36 36 36 36 35
40 40 39 39 40 41 42 43 43 43 43 43 43 43 43 43 42 42 42 42 41 40 40 40 39 39 38 38 38 37 37 37 37 36 36 35 35 35 35 36 36 36 36 36 35 35 35 35 35 35 35 35 36 36 36 37 37 37 38 38 38 38 37
41 42 41 41 41 41 42 42 42 42 42 43 43 44 44 44 44 44 44 44 44 44 43 43 42 42 42 42 42 41 41 41 41 41 41 41 41 40 40 39 39 39 39 39 39 39 38 38 38 38 38 38 38 38 38 38 38 38 38 39 39 39 39
42 43 44 43 43 43 43 42 42 41 41 41 42 43 43 44 45 46 46 47 47 47 47 47 46 46 46 45 45 45 45 45 44 45 45 45 45 45 44 44 43 43 42 42 42 41 41 40 40 40 40 40 40 40 40 40 39 39 39 40 40 41 41
41 43 45 46 46 45 44 44 44 43 43 42 42 42 43 43 44 45 48 49 50 50 50 50 50 50 50 49 49 48 48 48 48 48 48 47 47 47 47 47 47 46 45 45 44 44 43 42 42 41 41 41 41 41 41 41 41 41 41 41 42 42 43
41 42 43 44 47 47 46 46 46 45 45 45 45 45 45 45 44 45 46 48 50 51 52 52 52 51 52 51 51 50 50 49 49 49 49 49 49 48 48 49 49 48 48 47 47 47 46 45 45 44 44 43 43 43 43 43 43 44 44 44 44 44 44
42 41 39 38 40 43 45 46 47 47 48 48 48 48 47 47 47 46 46 47 48 49 49 50 50 50 50 50 50 50 49 49 49 49 49 49 49 49 49 49 49 49 49 49 49 49 49 49 48 48 48 47 47 47 47 47 47 47 47 47 47 47 47
Wind_Direction
205 205 205 205 201 196 197 200 198 195 197 199 200 201 204 207 207 202 198 197 197 196 193 191 191 191 190 188 188 188 184 184 191 191 188 189 191 191 191 193 196 200 204 208 210 213 215 216 216 216 215 214 213 213 215 218 220 224 230 232 232 232 225
205 204 206 205 200 196 198 201 202 199 198 198 199 201 204 208 210 208 204 203 204 203 199 195 193 193 192 190 190 191 191 189 191 195 196 196 196 197 196 196 198 202 205 208 210 213 216 218 218 218 217 217 217 218 219 222 225 229 234 236 234 231 225
204 201 203 203 199 197 198 201 204 204 201 200 199 200 205 208 211 212 209 207 208 210 207 201 197 195 194 193 192 193 195 194 193 194 197 199 201 202 201 200 202 205 207 209 210 212 215 217 217 217 217 218 219 221 222 223 224 226 230 234 234 230 224
205 200 198 199 199 198 198 200 203 205 204 202 201 201 205 208 209 210 211 210 211 214 215 211 206 202 199 197 194 194 197 199 196 195 196 197 201 205 205 206 207 208 211 213 214 215 215 216 217 216 218 220 221 221 221 220 219 219 221 226 230 229 224
208 202 200 199 199 198 198 200 203 205 205 204 204 203 205 209 210 209 210 212 213 215 216 217 216 214 210 205 200 198 199 201 201 199 199 198 199 203 206 209 211 212 215 216 217 218 219 220 220 219 219 221 223 222 220 218 219 216 215 217 222 225 227
207 202 203 203 203 200 198 200 203 204 205 205 205 207 207 208 210 211 210 212 214 215 215 217 218 219 217 213 208 204 203 204 205 204 203 202 201 202 205 209 211 213 216 218 220 221 222 223 225 226 225 225 226 226 225 224 226 226 225 225 225 227 233
206 203 205 206 205 202 200 203 205 206 208 208 207 208 209 209 210 212 212 212 214 215 215 216 218 219 220 217 213 211 209 208 209 208 209 209 208 206 206 208 210 212 216 218 220 222 223 224 228 232 233 233 234 235 235 234 235 236 238 239 240 240 243
208 207 209 210 209 205 202 204 207 209 211 212 211 210 211 212 211 212 213 214 215 215 216 217 218 220 221 220 217 216 215 214 213 213 214 215 215 214 212 211 210 212 217 219 221 222 224 225 227 231 236 239 240 241 243 243 243 243 244 247 249 250 252
218 215 217 218 216 211 206 205 208 210 212 213 214 213 212 213 213 213 213 214 215 216 216 218 219 221 222 222 220 218 218 218 218 217 217 219 220 220 219 218 215 214 217 220 223 225 226 226 227 230 233 237 240 242 245 247 249 249 249 250 251 252 253
228 225 226 227 223 217 213 212 212 212 212 212 212 213 214 214 214 214 214 215 215 216 217 218 219 221 223 223 222 220 219 218 218 217 217 219 220 221 222 222 221 220 220 220 223 226 228 230 230 230 232 233 235 238 241 245 247 250 251 252 253 253 252
230 228 228 230 229 223 218 218 220 219 216 213 211 212 213 214 214 213 214 216 217 217 217 218 219 221 223 224 224 222 221 220 219 219 218 218 219 220 222 223 223 223 222 222 223 225 228 232 235 235 234 232 232 233 235 237 241 245 249 252 255 256 256
232 230 228 228 230 229 224 222 225 226 221 216 214 213 213 214 213 212 213 216 218 218 217 217 219 221 222 224 225 224 222 221 221 222 222 221 221 221 222 224 226 226 226 225 224 224 226 230 234 237 236 233 232 232 232 233 236 240 244 249 253 256 258
236 234 233 231 231 233 231 226 226 228 226 220 217 214 212 212 212 212 214 217 219 220 219 218 219 221 223 225 226 226 224 222 221 222 224 224 225 225 225 226 228 230 231 230 229 227 226 227 230 235 236 233 231 231 232 235 238 240 242 243 247 251 255
238 239 238 238 237 236 236 232 230 230 227 223 220 217 212 211 212 213 215 218 220 222 222 220 219 220 222 225 227 228 228 226 224 223 224 225 227 228 229 229 230 232 233 234 235 234 232 230 230 233 236 237 234 232 232 234 238 242 243 242 242 244 248
240 244 243 244 244 242 240 239 239 235 227 221 221 220 216 213 213 214 216 218 221 223 224 223 222 221 222 223 225 228 229 229 228 227 227 228 228 229 230 231 232 233 234 235 236 238 238 237 235 235 238 241 241 240 239 238 241 244 246 246 246 245 245
243 250 252 250 247 246 244 242 245 242 228 221 220 220 218 214 212 214 217 219 220 223 225 226 225 224 224 225 225 226 228 229 230 230 230 230 231 231 231 232 233 233 234 234 236 237 239 240 240 239 240 243 245 246 246 246 247 250 252 254 255 254 252
250 255 258 256 251 250 248 245 246 244 228 221 221 221 218 216 214 214 217 221 223 223 224 226 225 223 225 228 228 226 227 228 229 230 231 231 232 233 234 234 235 236 235 235 235 236 237 239 240 241 241 243 246 249 251 252 252 254 256 259 261 262 261
252 254 257 257 255 253 250 247 247 245 234 226 225 224 222 220 218 216 215 218 222 222 223 225 224 220 222 228 230 228 228 227 228 229 231 232 233 234 235 236 238 240 240 239 239 238 238 238 240 241 242 243 245 248 251 253 253 254 256 258 261 264 266
250 252 254 255 254 252 251 250 248 245 243 238 231 228 225 224 225 225 220 217 217 218 220 223 222 220 221 226 228 228 228 228 228 228 230 233 234 235 235 236 238 240 241 242 243 243 242 241 241 242 243 244 245 246 247 250 252 254 255 256 258 261 264
248 249 250 252 252 252 252 253 251 247 244 241 237 232 227 224 226 229 229 226 222 220 221 222 222 221 222 225 227 227 227 228 228 227 229 231 234 235 235 236 237 239 240 242 243 244 244 244 243 242 242 244 246 246 246 248 250 253 255 256 257 258 259
248 247 247 248 250 252 253 252 250 249 247 245 242 236 227 224 224 223 227 230 229 226 227 228 228 228 227 228 229 228 228 228 229 229 229 231 232 233 234 235 237 239 240 241 242 243 244 244 244 244 243 243 245 248 248 248 249 251 253 255 256 256 256
249 248 247 247 249 251 254 253 250 248 247 245 243 240 233 227 225 221 220 224 224 223 225 228 231 232 233 233 233 231 231 231 231 232 232 233 234 233 234 236 238 239 240 241 242 243 245 245 244 244 243 242 244 246 248 249 249 250 251 253 255 256 256
246 247 247 248 250 251 253 254 251 248 246 244 244 245 243 234 227 223 220 218 214 210 212 216 218 220 227 232 231 231 234 234 234 234 234 235 235 234 233 235 238 239 241 241 240 240 242 244 243 242 243 244 245 246 249 250 251 250 250 250 252 254 256
241 243 244 246 248 250 251 252 251 248 246 244 243 245 246 244 239 236 236 236 230 216 207 205 199 198 209 218 218 220 227 230 231 232 233 234 234 233 234 236 238 241 242 241 241 242 242 243 242 242 244 246 247 249 252 254 254 253 251 250 251 252 254
238 240 242 245 246 247 247 248 249 248 246 244 244 245 246 247 248 249 251 251 247 238 229 223 213 210 216 219 216 215 218 219 220 224 227 229 229 229 231 232 233 236 236 234 237 243 244 243 243 244 245 247 248 249 252 254 255 255 253 252 252 252 253
241 242 244 246 247 248 248 248 248 249 248 246 246 248 248 248 249 252 254 251 246 241 240 238 233 229 231 232 231 230 229 227 225 226 228 231 230 229 229 228 228 233 236 234 235 238 238 237 239 242 243 245 247 249 251 252 252 252 253 254 255 255 254
241 243 244 245 246 247 248 248 249 250 251 251 251 252 255 255 253 253 253 251 244 239 237 239 241 241 241 241 241 240 240 240 240 239 239 243 246 248 249 246 245 248 253 254 252 249 244 241 241 242 242 243 245 247 249 249 249 250 252 255 257 257 257
237 239 241 243 244 245 245 245 247 248 250 252 252 252 255 257 258 257 257 255 252 245 239 239 241 244 245 245 245 245 246 247 248 247 248 250 254 256 256 255 253 251 251 253 254 255 254 253 253 252 251 250 250 251 252 252 252 252 253 254 255 255 257
240 240 241 241 242 243 244 244 245 246 247 249 250 251 251 253 255 256 257 257 256 253 247 244 243 244 245 245 245 245 247 249 250 250 250 251 253 255 255 256 254 252 250 250 252 255 256 257 256 256 255 253 252 252 254 255 256 256 256 256 256 255 256
248 246 245 244 244 244 245 245 245 246 246 248 249 250 251 250 251 253 254 255 256 256 254 251 249 248 247 247 248 248 248 249 251 251 251 252 254 255 256 256 256 255 254 253 253 254 256 257 257 257 256 255 253 253 254 256 258 258 259 261 261 260 259
253 252 250 249 248 247 247 247 248 247 247 247 248 250 251 252 252 252 252 253 253 255 256 255 254 254 253 253 252 253 253 253 254 254 254 255 256 257 258 259 258 257 256 255 254 254 254 256 257 258 258 258 258 257 257 259 260 260 260 261 262 262 262
255 253 252 251 250 250 249 249 249 250 250 249 249 250 251 252 253 253 253 253 252 252 253 254 254 254 255 255 255 255 255 255 256 256 256 257 257 258 258 259 258 257 256 256 255 255 254 255 256 257 257 258 258 258 257 258 259 260 260 261 261 263 264
255 255 254 254 253 252 252 251 251 251 252 251 251 251 251 251 251 251 252 253 253 252 251 251 252 252 253 254 254 255 255 255 256 256 256 256 256 257 258 258 258 257 256 255 254 254 254 254 254 254 255 255 256 256 256 257 258 259 260 262 263 263 264
253 254 253 253 253 253 253 252 252 251 251 251 251 250 251 251 251 251 250 250 251 253 252 251 251 252 252 252 253 253 254 254 255 256 256 256 256 255 256 257 257 257 256 256 254 253 253 252 252 253 253 254 254 255 256 257 258 259 259 261 262 263 264
252 252 253 253 253 253 253 253 252 251 250 250 249 248 248 249 249 250 250 250 250 252 253 252 252 252 252 252 253 253 254 254 254 255 256 256 256 256 256 256 256 256 256 256 255 255 254 253 253 252 252 253 253 254 255 256 257 258 258 258 259 260 261
251 250 250 250 250 251 252 252 252 251 251 250 250 249 248 248 248 249 250 250 251 251 252 253 253 254 254 254 254 254 254 254 254 254 254 254 255 255 256 255 255 255 254 254 255 255 255 254 254 254 254 254 255 255 256 256 256 256 257 257 257 257 258
250 250 250 249 248 248 249 249 250 250 251 251 251 251 250 250 250 249 249 250 251 251 252 253 253 254 254 255 254 254 254 253 253 253 253 253 253 253 254 254 255 254 254 253 253 254 254 255 255 255 256 256 257 258 259 259 259 258 258 258 258 259 259
249 248 250 251 250 249 248 249 249 249 250 251 252 252 252 252 252 251 250 250 250 251 252 252 252 253 253 254 254 254 253 253 253 253 253 253 253 253 252 252 253 254 255 255 254 255 255 256 257 257 257 258 258 259 260 261 261 261 261 261 261 261 261
Height
5910 5912 5913 5916 5919 5921 5923 5924 5926 5929 5931 5933 5934 5936 5938 5939 5941 5942 5944 5945 5946 5947 5948 5949 5950 5951 5952 5953 5954 5955 5956 5957 5958 5959 5960 5961 5962 5963 5964 5965 5966 5967 5968 5969 5970 5970 5971 5972 5972 5973 5973 5974 5974 5975 5975 5976 5976 5977 5977 5977 5977 5977 5978
5907 5909 5911 5914 5917 5919 5921 5923 5925 5927 5929 5931 5933 5934 5936 5938 5939 5941 5942 5943 5945 5946 5947 5948 5949 5951 5952 5953 5954 5955 5956 5956 5957 5958 5959 5961 5962 5963 5964 5965 5966 5967 5968 5968 5969 5970 5971 5972 5972 5973 5973 5974 5974 5974 5975 5976 5976 5977 5977 5977 5977 5978 5978
5904 5906 5909 5912 5915 5917 5919 5921 5923 5925 5927 5929 5931 5933 5935 5936 5937 5939 5941 5942 5943 5945 5946 5947 5949 5950 5951 5952 5953 5954 5955 5956 5957 5958 5959 5960 5962 5963 5964 5964 5965 5966 5967 5968 5969 5970 5971 5971 5972 5973 5973 5974 5974 5974 5975 5975 5975 5976 5976 5977 5977 5978 5978
5903 5904 5906 5909 5912 5915 5917 5920 5921 5923 5925 5927 5929 5931 5932 5934 5936 5937 5939 5941 5942 5943 5945 5946 5948 5949 5950 5951 5952 5953 5954 5956 5957 5958 5959 5960 5961 5962 5963 5964 5965 5966 5967 5968 5969 5969 5970 5971 5972 5972 5973 5973 5974 5974 5974 5974 5975 5975 5976 5976 5977 5977 5978
5901 5903 5905 5908 5911 5913 5916 5918 5920 5921 5923 5925 5927 5929 5930 5932 5934 5936 5937 5939 5941 5942 5944 5946 5948 5949 5950 5951 5951 5952 5953 5955 5956 5957 5958 5959 5960 5961 5962 5963 5964 5965 5966 5967 5968 5969 5969 5970 5971 5972 5972 5973 5973 5974 5974 5974 5975 5975 5975 5976 5976 5977 5977
5900 5902 5905 5907 5909 5912 5914 5916 5918 5919 5921 5923 5925 5927 5929 5931 5933 5934 5936 5938 5939 5941 5943 5945 5946 5948 5949 5949 5950 5951 5952 5953 5954 5955 5957 5957 5958 5959 5961 5962 5963 5964 5965 5966 5967 5968 5969 5970 5970 5971 5972 5972 5973 5973 5974 5974 5974 5974 5975 5975 5975 5976 5977
5899 5901 5903 5906 5908 5910 5912 5914 5916 5918 5919 5921 5923 5925 5927 5929 5931 5933 5934 5936 5938 5939 5941 5943 5944 5946 5947 5948 5949 5949 5950 5951 5952 5954 5955 5956 5957 5958 5959 5960 5962 5963 5964 5965 5966 5967 5968 5969 5970 5970 5971 5972 5972 5972 5973 5974 5974 5974 5974 5975 5975 5975 5976
5900 5901 5903 5904 5906 5908 5911 5913 5914 5916 5918 5919 5921 5923 5925 5927 5929 5930 5932 5934 5935 5937 5939 5941 5943 5944 5946 5947 5947 5948 5949 5950 5951 5953 5954 5955 5956 5957 5958 5959 5960 5961 5962 5963 5964 5966 5967 5967 5968 5969 5970 5970 5971 5971 5972 5972 5973 5973 5974 5974 5974 5974 5975
5900 5901 5903 5904 5905 5907 5909 5910 5912 5914 5915 5917 5919 5921 5923 5925 5927 5928 5930 5931 5933 5935 5937 5939 5941 5942 5944 5945 5946 5946 5947 5948 5949 5951 5952 5953 5955 5956 5957 5958 5959 5960 5960 5962 5963 5964 5965 5966 5966 5967 5967 5968 5969 5970 5971 5971 5972 5972 5973 5973 5973 5973 5974
5899 5900 5902 5903 5904 5905 5907 5908 5910 5911 5912 5914 5916 5919 5921 5923 5924 5925 5927 5929 5931 5932 5934 5936 5938 5940 5941 5943 5944 5945 5946 5946 5947 5948 5949 5951 5952 5954 5955 5957 5958 5958 5959 5960 5961 5962 5963 5964 5964 5965 5965 5966 5967 5968 5969 5969 5970 5971 5971 5972 5972 5972 5972
5898 5899 5900 5902 5902 5903 5904 5906 5907 5909 5910 5912 5914 5916 5918 5920 5921 5923 5925 5927 5928 5930 5932 5933 5935 5937 5938 5940 5942 5943 5944 5945 5945 5946 5947 5948 5950 5952 5953 5955 5956 5956 5957 5958 5959 5960 5961 5962 5963 5963 5964 5964 5965 5965 5966 5967 5968 5969 5970 5970 5971 5971 5971
5896 5898 5899 5900 5901 5902 5903 5904 5904 5906 5908 5910 5911 5913 5915 5917 5919 5920 5922 5924 5926 5927 5929 5930 5932 5934 5935 5937 5939 5941 5942 5943 5944 5944 5945 5947 5948 5950 5952 5953 5954 5955 5956 5956 5957 5958 5959 5960 5961 5962 5963 5963 5964 5964 5965 5965 5966 5966 5967 5968 5969 5969 5970
5895 5896 5897 5898 5899 5899 5900 5901 5901 5902 5904 5907 5908 5910 5912 5914 5916 5918 5919 5921 5923 5925 5926 5928 5929 5931 5933 5934 5936 5938 5939 5940 5941 5942 5943 5945 5947 5949 5950 5952 5953 5954 5955 5956 5956 5957 5957 5958 5959 5960 5961 5962 5962 5963 5964 5964 5965 5965 5965 5966 5966 5967 5968
5893 5894 5894 5895 5896 5897 5898 5898 5898 5898 5901 5904 5905 5906 5909 5911 5913 5915 5917 5918 5920 5922 5924 5925 5926 5928 5929 5931 5933 5935 5937 5938 5939 5940 5942 5943 5945 5947 5949 5950 5951 5952 5953 5955 5956 5956 5956 5957 5958 5959 5960 5961 5962 5962 5962 5963 5963 5963 5963 5964 5964 5964 5965
5891 5891 5892 5894 5894 5895 5895 5896 5895 5895 5897 5900 5901 5903 5906 5909 5911 5913 5914 5916 5918 5920 5921 5922 5924 5925 5926 5928 5930 5933 5934 5936 5938 5939 5940 5941 5943 5944 5946 5947 5948 5950 5951 5952 5953 5954 5955 5956 5957 5958 5959 5960 5961 5961 5962 5962 5961 5961 5962 5962 5962 5962 5963
5888 5889 5890 5892 5893 5893 5893 5893 5893 5892 5893 5895 5897 5900 5902 5905 5908 5910 5911 5913 5915 5917 5919 5920 5921 5923 5924 5926 5928 5929 5931 5933 5935 5937 5938 5939 5940 5941 5942 5944 5945 5947 5948 5949 5950 5951 5953 5954 5955 5956 5957 5958 5959 5960 5960 5961 5960 5960 5960 5961 5962 5962 5962
5886 5887 5888 5889 5890 5891 5891 5890 5890 5890 5891 5892 5894 5896 5898 5901 5904 5907 5910 5912 5913 5915 5916 5917 5919 5921 5923 5924 5925 5927 5928 5930 5932 5934 5935 5936 5937 5938 5939 5941 5942 5944 5945 5946 5947 5948 5949 5950 5951 5952 5954 5955 5956 5957 5958 5958 5958 5958 5959 5960 5961 5961 5961
5883 5884 5885 5886 5887 5888 5888 5888 5888 5889 5890 5891 5892 5894 5895 5897 5900 5902 5906 5909 5910 5911 5913 5914 5916 5918 5920 5921 5923 5924 5925 5927 5929 5930 5931 5932 5934 5935 5937 5939 5940 5942 5943 5944 5945 5945 5946 5947 5948 5949 5950 5951 5952 5953 5954 5955 5955 5956 5957 5958 5959 5960 5960
5880 5881 5882 5883 5884 5885 5886 5887 5887 5888 5888 5890 5891 5891 5892 5894 5896 5898 5901 5902 5903 5905 5908 5911 5913 5915 5916 5917 5919 5920 5922 5924 5925 5926 5928 5930 5931 5933 5934 5936 5937 5939 5940 5941 5942 5943 5944 5945 5946 5946 5947 5948 5949 5950 5950 5951 5952 5954 5955 5956 5957 5958 5958
5877 5879 5879 5880 5882 5883 5884 5885 5885 5886 5886 5888 5889 5889 5890 5892 5893 5895 5896 5897 5899 5901 5903 5905 5907 5910 5912 5914 5915 5917 5918 5920 5921 5923 5925 5927 5928 5929 5930 5932 5933 5935 5936 5937 5939 5940 5941 5942 5943 5943 5944 5945 5946 5947 5947 5947 5949 5951 5952 5953 5954 5955 5956
5874 5876 5877 5878 5879 5880 5881 5882 5883 5884 5884 5885 5887 5888 5888 5889 5890 5891 5892 5893 5895 5896 5898 5900 5902 5905 5908 5910 5912 5913 5915 5916 5918 5920 5922 5923 5924 5925 5926 5928 5929 5931 5932 5933 5935 5936 5937 5938 5939 5940 5941 5942 5943 5943 5944 5945 5946 5947 5948 5949 5950 5952 5953
5872 5873 5874 5875 5876 5877 5878 5879 5880 5881 5882 5883 5885 5885 5886 5887 5887 5889 5890 5890 5891 5892 5893 5896 5899 5902 5904 5906 5907 5909 5911 5913 5915 5917 5919 5920 5920 5921 5923 5924 5926 5927 5928 5930 5931 5933 5934 5935 5935 5936 5937 5939 5940 5940 5940 5941 5943 5944 5944 5945 5946 5948 5949
5869 5870 5871 5872 5873 5874 5875 5876 5877 5878 5879 5881 5882 5883 5884 5885 5886 5887 5888 5888 5888 5889 5891 5893 5895 5898 5900 5901 5903 5905 5907 5908 5910 5912 5914 5915 5916 5917 5918 5920 5921 5922 5924 5926 5927 5928 5930 5930 5931 5932 5933 5935 5936 5936 5936 5937 5938 5939 5940 5941 5942 5944 5945
5865 5867 5868 5869 5870 5871 5872 5873 5874 5875 5876 5878 5879 5880 5882 5883 5883 5884 5885 5886 5887 5888 5889 5891 5892 5894 5895 5896 5899 5901 5902 5902 5905 5907 5908 5909 5911 5912 5914 5915 5917 5919 5920 5922 5923 5924 5925 5926 5927 5928 5930 5931 5932 5932 5933 5934 5935 5935 5936 5937 5938 5940 5941
5862 5863 5864 5866 5867 5868 5869 5870 5871 5872 5873 5875 5876 5877 5879 5880 5881 5881 5882 5884 5886 5887 5888 5889 5891 5891 5892 5893 5896 5897 5897 5898 5901 5903 5904 5905 5906 5908 5909 5911 5913 5914 5916 5917 5918 5920 5920 5921 5923 5924 5926 5927 5928 5928 5929 5930 5931 5931 5932 5933 5934 5935 5936
5859 5860 5861 5863 5864 5865 5866 5867 5868 5869 5870 5872 5873 5874 5875 5877 5878 5879 5880 5881 5883 5885 5886 5887 5889 5890 5891 5892 5893 5894 5895 5896 5898 5900 5902 5902 5903 5904 5905 5907 5909 5911 5912 5913 5914 5915 5916 5917 5918 5920 5921 5922 5923 5924 5925 5926 5927 5927 5928 5928 5929 5930 5932
5856 5857 5859 5860 5861 5862 5863 5864 5865 5866 5867 5868 5870 5871 5872 5873 5875 5876 5877 5878 5880 5882 5884 5885 5887 5888 5889 5890 5891 5892 5893 5894 5896 5898 5899 5899 5900 5901 5902 5904 5906 5907 5909 5910 5910 5911 5912 5913 5914 5916 5917 5918 5918 5919 5920 5921 5922 5923 5923 5924 5924 5925 5927
5853 5854 5855 5856 5858 5859 5860 5861 5862 5863 5864 5866 5867 5868 5869 5870 5871 5873 5874 5875 5877 5879 5881 5883 5884 5885 5886 5887 5888 5889 5890 5891 5892 5894 5896 5896 5897 5899 5900 5901 5903 5904 5905 5907 5907 5908 5909 5910 5911 5912 5913 5914 5914 5915 5916 5917 5918 5918 5919 5919 5920 5921 5922
5849 5850 5851 5853 5854 5855 5857 5858 5859 5860 5861 5863 5864 5865 5866 5867 5868 5869 5871 5872 5873 5875 5877 5879 5880 5882 5883 5884 5885 5886 5887 5888 5889 5890 5892 5893 5894 5895 5896 5898 5899 5900 5901 5902 5903 5904 5904 5906 5907 5908 5909 5910 5910 5911 5912 5913 5914 5915 5915 5915 5916 5917 5917
5844 5846 5847 5848 5850 5851 5852 5854 5855 5857 5858 5859 5860 5861 5863 5864 5866 5867 5868 5869 5870 5871 5873 5875 5877 5878 5880 5881 5883 5883 5884 5885 5886 5887 5888 5889 5890 5892 5893 5894 5895 5896 5897 5898 5899 5899 5900 5901 5903 5903 5904 5905 5906 5907 5908 5908 5910 5911 5911 5912 5912 5912 5913
5838 5840 5842 5843 5845 5846 5848 5849 5850 5852 5854 5855 5856 5858 5859 5860 5862 5863 5864 5866 5867 5868 5869 5870 5872 5874 5876 5877 5879 5880 5881 5882 5883 5884 5885 5886 5887 5888 5889 5891 5892 5893 5894 5894 5895 5896 5897 5897 5898 5899 5900 5901 5902 5903 5903 5904 5905 5906 5907 5908 5908 5908 5908
5832 5834 5835 5837 5839 5841 5842 5844 5845 5847 5849 5851 5853 5854 5855 5857 5858 5859 5860 5861 5863 5864 5865 5866 5868 5869 5871 5872 5874 5876 5877 5878 5879 5880 5881 5882 5883 5884 5885 5887 5888 5889 5890 5890 5891 5892 5893 5893 5894 5895 5896 5896 5897 5898 5899 5900 5901 5902 5902 5903 5903 5903 5904
5826 5827 5829 5831 5833 5834 5836 5838 5840 5842 5844 5846 5848 5849 5851 5852 5853 5854 5855 5857 5858 5859 5861 5862 5863 5865 5866 5868 5869 5870 5872 5873 5874 5875 5876 5878 5879 5880 5881 5882 5883 5884 5885 5886 5887 5888 5889 5889 5890 5890 5891 5892 5892 5893 5894 5895 5895 5896 5897 5897 5898 5898 5898
5820 5822 5823 5825 5826 5828 5830 5832 5834 5836 5838 5840 5842 5843 5845 5846 5848 5849 5850 5852 5853 5854 5855 5857 5858 5860 5861 5862 5864 5865 5866 5867 5868 5869 5870 5872 5873 5874 5876 5877 5878 5879 5880 5881 5882 5883 5884 5885 5885 5886 5886 5886 5887 5888 5889 5889 5890 5890 5891 5891 5892 5893 5893
5815 5816 5818 5819 5821 5822 5824 5826 5828 5830 5832 5834 5836 5838 5839 5841 5842 5843 5844 5846 5847 5848 5849 5851 5852 5853 5855 5856 5858 5859 5860 5862 5863 5863 5864 5865 5867 5868 5869 5871 5872 5873 5874 5875 5876 5877 5878 5879 5880 5880 5881 5881 5882 5883 5883 5884 5885 5885 5886 5886 5887 5887 5888
5810 5811 5812 5813 5815 5817 5819 5820 5822 5824 5826 5828 5830 5832 5833 5835 5836 5837 5838 5839 5840 5841 5843 5844 5845 5847 5848 5849 5851 5853 5854 5855 5856 5857 5858 5859 5860 5861 5862 5864 5865 5867 5868 5869 5869 5870 5872 5873 5874 5874 5875 5876 5876 5877 5877 5878 5879 5880 5880 5880 5881 5882 5882
5805 5805 5806 5808 5809 5811 5813 5814 5816 5817 5819 5821 5823 5824 5826 5828 5830 5831 5832 5833 5834 5835 5836 5837 5839 5840 5841 5842 5844 5846 5847 5849 5850 5851 5852 5853 5854 5855 5856 5857 5858 5860 5861 5862 5863 5864 5865 5866 5867 5868 5869 5870 5870 5871 5871 5871 5872 5873 5874 5874 5875 5875 5876
5800 5801 5802 5803 5804 5805 5806 5807 5809 5810 5812 5814 5815 5817 5819 5821 5823 5824 5826 5827 5828 5828 5829 5831 5832 5833 5834 5835 5837 5838 5840 5841 5843 5844 5846 5847 5848 5849 5850 5851 5852 5853 5854 5855 5856 5857 5858 5859 5859 5860 5861 5862 5863 5864 5864 5864 5865 5865 5867 5868 5868 5869 5869